When you browse on this site, cookies collect data to enhance your experience and personalize the content and advertising you see.
Visit our Privacy Policy to learn more. By continuing to use the site, you agree to this use of cookies and data.
  • In Hungary
  • List of Countries
  • For 7 days
  • Water Temperature
  • Satellite Maps
  • Weather Map
  • News
  • Weather Widgets
  • user-avatar
    Login

    Hourly Weather Montecchio Maggiore

    Today, 18 June, Tuesday

    Time Temperature Precipitation Wind Pressure Humidity
    00:00 +24°C° 0 mm 3 mps 756 mmHg 67%
    01:00 +22°C° 0 mm 3 mps 756 mmHg 66%
    02:00 +23°C° 0 mm 2 mps 756 mmHg 66%
    03:00 +23°C° 0 mm 2 mps 756 mmHg 66%
    04:00 +21°C° 0 mm 2 mps 755 mmHg 66%
    05:00 +23°C° 0 mm 1 mps 755 mmHg 64%
    06:00 +24°C° 0 mm 1 mps 756 mmHg 63%
    07:00 +26°C° 0 mm 1 mps 756 mmHg 62%
    08:00 +27°C° 0 mm 1 mps 756 mmHg 58%
    09:00 +28°C° 0 mm 1 mps 755 mmHg 55%
    10:00 +29°C° 0 mm 2 mps 755 mmHg 51%
    11:00 +30°C° 0 mm 2 mps 755 mmHg 50%
    12:00 +30°C° 0 mm 2 mps 755 mmHg 49%
    13:00 +31°C° 0 mm 2 mps 755 mmHg 48%
    14:00 +31°C° 0 mm 2 mps 754 mmHg 48%
    15:00 +31°C° 0 mm 2 mps 754 mmHg 49%
    16:00 +31°C° 0 mm 2 mps 754 mmHg 49%
    17:00 +30°C° 0 mm 2 mps 754 mmHg 54%
    18:00 +29°C° 0 mm 1 mps 754 mmHg 58%
    19:00 +28°C° 0 mm 1 mps 754 mmHg 63%
    20:00 +27°C° 0 mm 1 mps 754 mmHg 65%
    21:00 +26°C° 0 mm 1 mps 754 mmHg 68%
    22:00 +25°C° 0 mm 1 mps 755 mmHg 70%
    23:00 +24°C° 0 mm 1 mps 754 mmHg 71%

    Tomorrow, 19 June, Wednesday

    Time Temperature Precipitation Wind Pressure Humidity
    00:00 +24°C° 0 mm 1 mps 754 mmHg 72%
    01:00 +23°C° 0 mm 1 mps 754 mmHg 73%
    02:00 +23°C° 0 mm 1 mps 754 mmHg 74%
    03:00 +23°C° 0 mm 1 mps 754 mmHg 75%
    04:00 +23°C° 0 mm 1 mps 754 mmHg 75%
    05:00 +23°C° 0 mm 1 mps 754 mmHg 74%
    06:00 +24°C° 0 mm 1 mps 754 mmHg 72%
    07:00 +23°C° 0 mm 0 mps 754 mmHg 70%
    08:00 +26°C° 0 mm 1 mps 754 mmHg 66%
    09:00 +28°C° 0 mm 1 mps 754 mmHg 62%
    10:00 +29°C° 0 mm 1 mps 754 mmHg 58%
    11:00 +30°C° 0.3 mm 2 mps 754 mmHg 56%
    12:00 +30°C° 0.3 mm 2 mps 753 mmHg 55%
    13:00 +31°C° 0.3 mm 3 mps 753 mmHg 54%
    14:00 +31°C° 0.4 mm 3 mps 753 mmHg 52%
    15:00 +31°C° 0.4 mm 3 mps 753 mmHg 50%
    16:00 +33°C° 0.4 mm 3 mps 752 mmHg 48%
    17:00 +31°C° 0.2 mm 2 mps 752 mmHg 52%
    18:00 +30°C° 0.2 mm 2 mps 753 mmHg 56%
    19:00 +29°C° 0.2 mm 2 mps 753 mmHg 60%
    20:00 +27°C° 0.1 mm 1 mps 753 mmHg 63%
    21:00 +26°C° 0.1 mm 1 mps 753 mmHg 67%
    22:00 +25°C° 0.1 mm 1 mps 754 mmHg 71%
    23:00 +24°C° 0 mm 1 mps 753 mmHg 71%

    Day after tomorrow, 20 June, Thursday

    Time Temperature Precipitation Wind Pressure Humidity
    00:00 +24°C° 0 mm 1 mps 753 mmHg 72%
    01:00 +23°C° 0 mm 1 mps 753 mmHg 72%
    02:00 +23°C° 0 mm 1 mps 753 mmHg 73%
    03:00 +23°C° 0 mm 1 mps 753 mmHg 74%
    04:00 +22°C° 0 mm 1 mps 753 mmHg 75%
    05:00 +23°C° 0 mm 1 mps 753 mmHg 74%
    06:00 +24°C° 0 mm 1 mps 753 mmHg 73%
    07:00 +23°C° 0 mm 0 mps 753 mmHg 71%
    08:00 +26°C° 0 mm 1 mps 753 mmHg 67%
    09:00 +27°C° 0 mm 1 mps 753 mmHg 63%
    10:00 +28°C° 0 mm 2 mps 753 mmHg 59%
    11:00 +29°C° 0 mm 2 mps 753 mmHg 54%
    12:00 +30°C° 0 mm 2 mps 753 mmHg 50%
    13:00 +31°C° 0 mm 2 mps 753 mmHg 45%
    14:00 +31°C° 0 mm 2 mps 752 mmHg 45%
    15:00 +31°C° 0 mm 2 mps 752 mmHg 45%
    16:00 +31°C° 0 mm 2 mps 752 mmHg 45%
    17:00 +30°C° 0 mm 2 mps 752 mmHg 48%
    18:00 +29°C° 0 mm 2 mps 752 mmHg 52%
    19:00 +28°C° 0 mm 2 mps 752 mmHg 56%
    20:00 +27°C° 0 mm 1 mps 753 mmHg 57%
    21:00 +26°C° 0 mm 1 mps 753 mmHg 58%
    22:00 +24°C° 0 mm 1 mps 753 mmHg 59%
    23:00 +24°C° 0 mm 1 mps 753 mmHg 60%

    21 June, Friday

    Time Temperature Precipitation Wind Pressure Humidity
    00:00 +23°C° 0 mm 1 mps 753 mmHg 62%
    01:00 +23°C° 0 mm 1 mps 754 mmHg 63%
    02:00 +22°C° 0 mm 1 mps 753 mmHg 66%
    03:00 +22°C° 0 mm 1 mps 753 mmHg 68%
    04:00 +21°C° 0 mm 1 mps 753 mmHg 71%
    05:00 +22°C° 0 mm 1 mps 754 mmHg 71%
    06:00 +23°C° 0 mm 1 mps 754 mmHg 70%
    07:00 +24°C° 0 mm 1 mps 754 mmHg 70%
    08:00 +25°C° 0 mm 1 mps 754 mmHg 66%
    09:00 +27°C° 0 mm 1 mps 754 mmHg 62%
    10:00 +28°C° 0 mm 1 mps 754 mmHg 58%
    11:00 +29°C° 0 mm 1 mps 754 mmHg 55%
    12:00 +30°C° 0 mm 1 mps 754 mmHg 52%
    13:00 +31°C° 0 mm 1 mps 754 mmHg 49%
    14:00 +31°C° 0 mm 1 mps 754 mmHg 49%
    15:00 +31°C° 0 mm 2 mps 753 mmHg 49%
    16:00 +31°C° 0 mm 2 mps 753 mmHg 49%
    17:00 +30°C° 0.2 mm 1 mps 753 mmHg 54%
    18:00 +29°C° 0.2 mm 1 mps 753 mmHg 59%
    19:00 +28°C° 0.2 mm 1 mps 753 mmHg 63%
    20:00 +26°C° 0.3 mm 1 mps 754 mmHg 66%
    21:00 +25°C° 0.3 mm 1 mps 754 mmHg 68%
    22:00 +24°C° 0.3 mm 1 mps 755 mmHg 71%
    23:00 +24°C° 0.3 mm 1 mps 755 mmHg 72%

    22 June, Saturday

    Time Temperature Precipitation Wind Pressure Humidity
    00:00 +23°C° 0.3 mm 1 mps 755 mmHg 73%
    01:00 +23°C° 0.3 mm 2 mps 755 mmHg 75%
    02:00 +22°C° 0.3 mm 1 mps 755 mmHg 77%
    03:00 +22°C° 0.3 mm 1 mps 755 mmHg 78%
    04:00 +22°C° 0.3 mm 1 mps 755 mmHg 80%
    05:00 +23°C° 0.1 mm 1 mps 755 mmHg 77%
    06:00 +24°C° 0.1 mm 1 mps 755 mmHg 74%
    07:00 +25°C° 0.1 mm 1 mps 755 mmHg 71%
    08:00 +26°C° 0.1 mm 1 mps 755 mmHg 65%
    09:00 +27°C° 0.1 mm 1 mps 755 mmHg 60%
    10:00 +29°C° 0.1 mm 2 mps 755 mmHg 54%
    11:00 +29°C° 0.2 mm 2 mps 755 mmHg 53%
    12:00 +30°C° 0.2 mm 2 mps 755 mmHg 51%
    13:00 +31°C° 0.2 mm 2 mps 754 mmHg 50%
    14:00 +31°C° 0.1 mm 2 mps 754 mmHg 50%
    15:00 +31°C° 0.1 mm 1 mps 754 mmHg 50%
    16:00 +31°C° 0.1 mm 1 mps 754 mmHg 50%
    17:00 +30°C° 0.1 mm 1 mps 754 mmHg 54%
    18:00 +29°C° 0.1 mm 1 mps 754 mmHg 59%
    19:00 +28°C° 0.1 mm 1 mps 754 mmHg 64%
    20:00 +27°C° 0.2 mm 1 mps 755 mmHg 66%
    21:00 +26°C° 0.2 mm 1 mps 755 mmHg 69%
    22:00 +25°C° 0.2 mm 1 mps 755 mmHg 71%
    23:00 +24°C° 0 mm 1 mps 755 mmHg 72%

    23 June, Sunday

    Time Temperature Precipitation Wind Pressure Humidity
    00:00 +24°C° 0 mm 1 mps 756 mmHg 73%
    01:00 +23°C° 0 mm 1 mps 756 mmHg 74%
    02:00 +23°C° 0 mm 1 mps 756 mmHg 75%
    03:00 +23°C° 0 mm 1 mps 756 mmHg 76%
    04:00 +23°C° 0 mm 1 mps 756 mmHg 77%
    05:00 +24°C° 0 mm 1 mps 756 mmHg 75%
    06:00 +25°C° 0 mm 1 mps 756 mmHg 73%
    07:00 +26°C° 0 mm 1 mps 756 mmHg 71%
    08:00 +27°C° 0 mm 1 mps 756 mmHg 66%
    09:00 +28°C° 0 mm 1 mps 756 mmHg 62%
    10:00 +29°C° 0 mm 1 mps 756 mmHg 58%
    11:00 +30°C° 0 mm 1 mps 756 mmHg 56%
    12:00 +31°C° 0 mm 2 mps 756 mmHg 55%
    13:00 +31°C° 0 mm 2 mps 756 mmHg 54%
    14:00 +31°C° 0 mm 2 mps 756 mmHg 54%
    15:00 +31°C° 0 mm 1 mps 756 mmHg 54%
    16:00 +31°C° 0 mm 1 mps 756 mmHg 54%
    17:00 +31°C° 0 mm 1 mps 756 mmHg 58%
    18:00 +30°C° 0 mm 1 mps 756 mmHg 61%
    19:00 +29°C° 0 mm 1 mps 756 mmHg 65%
    20:00 +28°C° 0 mm 1 mps 757 mmHg 69%
    21:00 +27°C° 0 mm 1 mps 757 mmHg 72%
    22:00 +26°C° 0 mm 1 mps 758 mmHg 76%
    23:00 +25°C° 0 mm 1 mps 758 mmHg 76%
    Show more